EW8833 Weather Reports


time (UTC)temp
F
wind
direction
speed
knots
gust
knots
rain 1hr
in
rain 24hr
in
rain mn
in
humidity
%
barometer
mb
20260505064856 47 209 0.0 0.0 0.00 0.22 0.00 89 822.2
20260505064626 47 209 0.0 0.0 0.00 0.22 0.00 89 822.3
20260505063855 47 209 0.0 0.9 0.00 0.22 0.00 89 822.2
20260505063614 47 209 0.0 0.9 0.00 0.22 0.00 89 822.1
20260505063115 47 209 0.9 2.6 0.00 0.22 0.00 90 822.0
20260505062348 47 209 0.9 2.6 0.00 0.22 0.00 89 822.0
20260505061849 47 209 0.9 3.5 0.00 0.22 0.00 90 822.0
20260505061350 47 209 0.9 3.5 0.00 0.22 0.00 90 822.0
20260505060831 47 266 0.9 3.5 0.00 0.22 0.00 89 822.1
20260505060331 47 266 0.9 3.5 0.00 0.22 0.00 89 822.1
20260505055832 47 266 0.9 1.7 0.00 0.22 0.22 88 822.1
20260505055524 47 266 0.9 2.6 0.00 0.22 0.22 89 822.0
20260505054730 47 266 0.9 2.6 0.00 0.22 0.22 88 822.1
20260505054231 47 266 0.9 3.5 0.00 0.22 0.22 87 822.1
20260505053733 47 266 1.7 3.5 0.00 0.22 0.22 87 821.9
20260505053159 46 266 0.9 2.6 0.00 0.22 0.22 87 821.9
20260505052641 47 266 0.9 2.6 0.00 0.22 0.22 87 821.8
20260505052140 47 266 0.9 2.6 0.00 0.22 0.22 87 821.8
20260505051619 47 266 0.9 2.6 0.00 0.22 0.22 87 821.8
20260505051116 47 266 0.9 2.6 0.00 0.22 0.22 86 821.7
20260505050614 47 266 0.9 2.6 0.00 0.22 0.22 86 821.7
20260505050334 47 266 1.7 2.6 0.00 0.22 0.22 87 821.6
20260505041106 47 239 3.5 6.1 0.00 0.22 0.22 90 821.9
20260505040539 47 246 3.5 6.1 0.00 0.22 0.22 91 821.9
20260505040018 47 240 3.5 6.1 0.00 0.22 0.22 91 821.9
20260505035520 47 248 3.5 6.1 0.01 0.22 0.22 91 821.8
20260505034952 47 223 3.5 7.0 0.01 0.22 0.22 91 821.8
20260505034417 47 234 4.3 7.0 0.03 0.22 0.22 91 821.8
20260505033848 47 226 4.3 7.0 0.04 0.22 0.22 92 821.9
20260505033347 47 254 5.2 7.8 0.05 0.22 0.22 92 821.9
20260505032844 47 241 5.2 7.8 0.06 0.22 0.22 92 822.0
20260505032344 47 229 5.2 8.7 0.08 0.22 0.22 92 821.9
20260505032059 47 244 6.1 9.6 0.09 0.22 0.22 92 821.9
20260505031337 47 244 6.1 9.6 0.10 0.22 0.22 92 821.7
20260505030835 47 224 4.3 7.8 0.11 0.22 0.22 92 821.8
20260505030335 48 221 3.5 7.0 0.12 0.22 0.22 92 821.8
20260505025834 48 248 3.5 6.1 0.12 0.22 0.22 91 821.8
20260505025333 48 246 4.3 6.1 0.11 0.21 0.21 90 821.7
20260505025057 49 240 4.3 7.8 0.10 0.20 0.21 89 821.7
20260505024332 49 223 5.2 10.4 0.09 0.19 0.19 88 821.7
20260505023832 49 240 5.2 10.4 0.08 0.18 0.18 87 821.7
20260505023332 49 260 6.1 12.2 0.07 0.17 0.17 87 821.7
20260505022832 49 235 5.2 12.2 0.06 0.16 0.16 85 821.6
20260505022333 50 250 4.3 9.6 0.04 0.14 0.14 84 821.5
20260505021802 50 244 5.2 8.7 0.02 0.12 0.13 82 821.4
20260505021242 51 294 6.1 8.7 0.01 0.11 0.11 79 821.3
20260505020711 51 301 7.0 11.3 0.01 0.11 0.11 76 821.3
20260505020139 52 317 7.0 12.2 0.00 0.10 0.10 74 821.3
20260505015636 52 316 6.1 12.2 0.00 0.10 0.10 73 821.2
20260505015355 51 339 6.1 9.6 0.00 0.10 0.10 73 821.1
20260505014634 51 322 7.0 12.2 0.00 0.10 0.10 74 821.0
20260505014126 51 321 7.8 12.2 0.00 0.10 0.10 75 821.0
20260505013626 51 311 8.7 13.9 0.00 0.10 0.10 76 821.0
20260505013126 50 355 8.7 15.6 0.00 0.10 0.10 76 820.9
20260505012626 50 304 9.6 15.6 0.00 0.10 0.10 77 820.9
20260505012128 50 309 9.6 17.4 0.00 0.10 0.10 77 820.9
20260505011625 50 323 11.3 17.4 0.00 0.10 0.10 78 820.9
20260505011126 51 5 11.3 18.2 0.00 0.10 0.10 77 820.7
20260505010626 51 323 12.2 18.2 0.00 0.10 0.10 76 820.8
20260505010127 51 329 11.3 17.4 0.00 0.10 0.10 75 821.0
20260505005625 52 313 13.0 20.9 0.00 0.10 0.10 73 821.0
20260505005122 53 305 13.0 20.9 0.00 0.10 0.10 72 821.0
20260505004622 54 330 10.4 19.1 0.00 0.10 0.10 70 820.9
20260505004123 55 342 6.1 14.8 0.00 0.10 0.10 69 820.9
20260505003620 56 348 2.6 9.6 0.00 0.10 0.10 68 821.0
20260505003348 56 9 2.6 3.5 0.00 0.10 0.10 69 820.8
20260505002028 56 344 2.6 3.5 0.00 0.10 0.10 70 820.8
20260505001501 56 333 1.7 3.5 0.00 0.10 0.10 68 820.7
20260505000930 56 333 1.7 3.5 0.00 0.10 0.10 68 820.6
20260505000400 56 333 1.7 2.6 0.00 0.10 0.10 69 820.5
20260504234857 55 15 0.0 1.7 0.00 0.10 0.10 71 820.6
20260504234345 55 15 0.0 1.7 0.01 0.10 0.10 71 820.6
20260504233842 55 15 0.9 1.7 0.01 0.10 0.10 72 820.5
20260504233341 55 15 0.9 1.7 0.02 0.10 0.10 73 820.5
20260504232838 54 15 0.9 1.7 0.03 0.10 0.10 74 820.6
20260504232335 54 15 0.9 3.5 0.03 0.10 0.10 76 820.5
20260504231835 54 15 2.6 4.3 0.03 0.10 0.10 76 820.4
20260504231328 54 15 2.6 5.2 0.03 0.10 0.10 76 820.4
20260504230826 54 26 2.6 6.1 0.03 0.10 0.10 79 820.6
20260504230325 54 282 3.5 6.1 0.03 0.10 0.10 74 820.4
20260504225814 54 282 4.3 9.6 0.03 0.10 0.10 74 820.2
20260504225312 54 252 4.3 9.6 0.03 0.10 0.10 72 820.5
20260504224810 55 267 5.2 11.3 0.03 0.10 0.10 72 820.4
20260504224313 56 272 5.2 11.3 0.02 0.09 0.09 68 820.7
20260504223748 57 284 2.6 9.6 0.02 0.09 0.09 65 820.6
20260504223251 58 310 0.9 3.5 0.01 0.08 0.08 66 820.7
20260504222726 58 306 0.9 4.3 0.00 0.07 0.07 54 820.6
20260504222159 58 306 0.9 4.3 0.00 0.07 0.07 53 820.4
20260504221633 58 65 2.6 8.7 0.00 0.07 0.07 54 820.4
20260504221130 59 65 6.1 9.6 0.00 0.07 0.07 53 820.0
20260504220606 59 35 6.1 11.3 0.00 0.07 0.07 54 819.8
20260504220046 59 24 5.2 11.3 0.00 0.07 0.07 55 819.5
20260504215542 59 40 6.1 9.6 0.00 0.07 0.07 57 819.4
20260504215039 58 48 7.0 11.3 0.00 0.07 0.07 57 819.4
20260504214537 58 48 7.8 11.3 0.00 0.07 0.07 59 819.4
20260504214038 58 51 7.8 13.9 0.01 0.07 0.07 58 819.5
20260504213530 58 65 7.8 13.9 0.02 0.07 0.07 60 819.6
20260504213030 58 69 8.7 13.9 0.05 0.07 0.07 58 819.8
20260504212528 58 62 11.3 19.1 0.07 0.07 0.07 60 819.9
20260504212249 59 32 12.2 19.1 0.07 0.07 0.07 58 819.9
20260504211027 57 60 9.6 16.5 0.07 0.07 0.07 66 820.2
20260504210528 56 94 9.6 14.8 0.07 0.07 0.07 65 820.2
20260504210025 56 83 9.6 13.0 0.07 0.07 0.07 67 820.2
20260504205523 56 88 8.7 14.8 0.07 0.07 0.07 64 820.2
20260504205025 56 71 7.8 13.9 0.07 0.07 0.07 64 820.0
20260504204524 56 69 10.4 19.1 0.07 0.07 0.07 60 820.1
20260504204256 57 66 10.4 19.1 0.06 0.06 0.06 55 820.0
20260504203504 59 52 9.6 15.6 0.05 0.05 0.05 53 819.9
20260504203233 62 5 10.4 15.6 0.01 0.01 0.01 51 819.7
20260504202502 65 348 8.7 14.8 0.00 0.00 0.00 43 819.5
20260504202227 67 335 7.8 13.0 0.00 0.00 0.00 34 819.3
20260504201503 67 330 7.8 13.0 0.00 0.00 0.00 34 819.1
20260504200943 68 337 7.0 11.3 0.00 0.00 0.00 34 819.0
20260504195941 69 339 7.8 15.6 0.00 0.00 0.00 33 818.7
20260504195441 69 10 10.4 15.6 0.00 0.00 0.00 33 818.7
20260504194942 69 40 11.3 18.2 0.00 0.00 0.00 33 818.6
20260504194431 69 42 10.4 18.2 0.00 0.00 0.00 34 818.4
20260504194146 69 348 10.4 18.2 0.00 0.00 0.00 34 818.5
20260504193428 69 343 11.3 18.2 0.00 0.00 0.00 33 818.8
20260504192928 70 15 11.3 16.5 0.00 0.00 0.00 33 818.7
20260504192428 71 32 9.6 14.8 0.00 0.00 0.00 32 818.8
20260504191927 71 335 7.8 14.8 0.00 0.00 0.00 31 818.9
20260504191416 71 312 8.7 13.0 0.00 0.00 0.00 32 818.9
20260504190913 70 306 8.7 15.6 0.00 0.00 0.00 32 819.0
20260504190414 70 332 8.7 15.6 0.00 0.00 0.00 33 819.0
20260504185917 69 0 8.7 13.9 0.00 0.00 0.00 33 819.1
20260504185353 69 261 8.7 13.9 0.00 0.00 0.00 33 819.2
20260504184824 69 292 8.7 13.9 0.00 0.00 0.00 34 819.2
20260504184255 68 293 9.6 13.9 0.00 0.00 0.00 34 819.2
20260504183726 68 293 9.6 13.9 0.00 0.00 0.00 33 819.3
20260504183216 68 223 8.7 13.0 0.00 0.00 0.00 34 819.4
20260504182909 68 257 7.0 13.0 0.00 0.00 0.00 34 819.4
20260504182131 67 284 7.8 14.8 0.00 0.00 0.00 34 819.4
20260504181633 67 284 9.6 14.8 0.00 0.00 0.00 34 819.6
20260504181108 67 309 9.6 16.5 0.00 0.00 0.00 35 819.6
20260504180611 66 240 9.6 16.5 0.00 0.00 0.00 36 819.6
20260504180045 66 242 10.4 15.6 0.00 0.00 0.00 36 819.7
20260504175734 65 271 9.6 17.4 0.00 0.00 0.00 36 819.9
20260504174958 65 271 9.6 17.4 0.00 0.00 0.00 36 820.0
20260504174502 65 257 11.3 16.5 0.00 0.00 0.00 37 820.1
20260504173933 65 232 10.4 17.4 0.00 0.00 0.00 37 820.2
20260504173405 64 252 9.6 18.2 0.00 0.00 0.00 37 820.3
20260504173100 64 232 9.6 18.2 0.00 0.00 0.00 37 820.2
20260504172325 64 263 8.7 19.1 0.00 0.00 0.00 37 820.3
20260504171254 64 265 12.2 19.1 0.00 0.00 0.00 37 820.5
20260504170727 63 272 13.9 21.7 0.00 0.00 0.00 37 820.4
20260504170159 63 290 13.9 21.7 0.00 0.00 0.00 37 820.3
20260504160110 63 288 7.0 18.2 0.00 0.00 0.00 37 820.4
20260504150958 63 290 11.3 19.1 0.00 0.00 0.00 35 820.4
20260504150425 63 280 11.3 19.1 0.00 0.00 0.00 35 820.5
20260504141052 63 249 7.0 13.0 0.00 0.00 0.00 34 820.5
20260504140551 62 254 7.0 13.0 0.00 0.00 0.00 34 820.5
20260504130805 61 0 9.6 17.4 0.00 0.00 0.00 34 820.3
20260504110321 47 0 1.7 3.5 0.00 0.00 0.00 47 820.4
20260504100452 47 0 1.7 3.5 0.00 0.00 0.00 47 820.5
20260504081643 50 0 0.9 2.6 0.00 0.00 0.00 43 821.1
20260504081141 50 0 0.9 3.5 0.00 0.00 0.00 43 821.2
20260504080640 50 0 0.9 3.5 0.00 0.00 0.00 43 821.1
20260504080142 50 0 1.7 3.5 0.00 0.00 0.00 43 821.3